[[[{"header":{"parameterUnit":"kt","parameterCategory":2,"dx":1,"dy":1,"la1":30.253999710083008,"la2":30.299108505249023,"lo1":-89.0895004272461,"lo2":-89.04439544677734,"nx":28,"ny":28,"refTime":"2022-10-29T21:00:00:Z","depth":0,"parameterNumber":1,"parameterNumberName":"U-component_of_WINDS"},"data":[4.2271,4.2375,4.2349,4.2457,4.2453,4.2523,4.254,4.2559,4.2569,4.2651,4.2693,4.2681,4.2682,4.2729,4.2775,4.2769,4.2789,4.2843,4.2826,4.2607,4.2575,4.2544,4.2516,4.2848,4.2849,4.3055,4.3057,4.3058,4.2106,4.2103,4.2153,4.2185,4.2228,4.216,4.218,4.2221,4.2286,4.23,4.2342,4.2413,4.2466,4.245,4.2498,4.2547,4.2519,4.2562,4.2557,4.2558,4.2323,4.2293,4.2584,4.2583,4.2583,4.2583,4.2583,4.2583,4.18,4.1865,4.1869,4.1923,4.1933,4.1955,4.2013,4.1995,4.2046,4.2092,4.2054,4.2129,4.214,4.2187,4.2198,4.2256,4.2204,4.2245,4.2254,4.2264,4.2278,4.1977,4.2264,4.2263,4.2262,4.2262,4.2261,0,4.1568,4.1542,4.1589,4.1629,4.1668,4.1698,4.1721,4.1756,4.1696,4.1742,4.1804,4.1837,4.1902,4.196,4.2001,4.2004,4.194,4.1933,4.196,4.1976,4.1985,4.1978,4.1594,4.1924,4.1921,4.1919,4.1918,4.1917,4.1254,4.1335,4.1328,4.1365,4.1371,4.1433,4.1464,4.1405,4.1442,4.1463,4.1525,4.1582,4.1624,4.1732,4.1713,4.1764,4.1733,4.1861,4.174,4.1752,4.1731,4.1726,4.1732,4.1885,4.1889,4.1892,4.1895,0,4.108,4.1039,4.1155,4.1142,4.1141,4.1229,4.1217,4.1281,4.1258,4.1343,4.136,4.1324,4.1389,4.1349,4.1417,4.1394,4.1537,4.1507,4.1531,4.1522,4.163,4.1619,4.1994,4.2039,4.1697,4.17,4.1703,0,4.0796,4.0904,4.0836,4.0907,4.1024,4.0962,4.1081,4.1072,4.108,4.1147,4.1067,4.1131,4.1071,4.113,4.1097,4.1207,4.1221,4.1209,4.1199,4.1215,4.1216,4.1234,4.1217,4.1176,4.1174,4.1173,4.1171,0,4.0525,4.0618,4.0731,4.0746,4.0744,4.0799,4.0802,4.0811,4.0844,4.0881,4.0901,4.095,4.0977,4.1016,4.0972,4.0892,4.1107,4.0988,4.1095,4.1096,4.1144,4.1142,4.1485,4.1169,4.1168,4.1168,4.1167,0,4.0289,4.0325,4.0497,4.0492,4.0519,4.0596,4.0637,4.0694,4.071,4.0692,4.0722,4.0664,4.0759,4.0642,4.0771,4.0678,4.0709,4.0707,4.0714,4.0718,4.0588,4.0784,4.1117,4.1148,4.0724,4.072,4.0717,0,3.9988,4.0151,4.0098,4.0265,4.0334,4.0236,4.032,4.0337,4.0321,4.0379,4.0362,4.043,4.0335,4.035,4.042,4.0406,4.0528,4.0389,4.0472,4.0476,4.0467,4.0773,4.0831,4.1048,4.0669,4.0674,4.0678,0,3.975,3.9746,3.978,3.9792,3.9804,3.9864,3.9962,4.0013,4.0054,4.0084,4.0163,4.026,4.019,4.0219,4.0178,4.0252,4.0444,4.0169,4.0168,4.0217,4.0643,4.0697,4.0734,4.04,4.0405,4.041,4.064,0,3.9396,3.9474,3.9564,3.9599,3.9638,3.9742,3.9697,3.9745,3.9699,3.968,3.9798,3.9805,3.9862,3.9895,3.9853,4.0037,4.0,3.9927,3.9809,4.0012,4.0086,4.0117,3.9701,3.9698,3.9695,3.9692,0,0,3.9117,3.9227,3.9167,3.9259,3.9288,3.9186,3.93,3.9318,3.9357,3.938,3.9313,3.9451,3.9461,3.961,3.9669,3.9694,3.9723,3.9655,3.9917,3.9942,3.9965,4.0046,4.0078,3.9687,3.9685,3.9684,3.9683,0,3.8978,3.8986,3.91,3.9114,3.9133,3.9107,3.9134,3.9137,3.913,3.9247,3.9162,3.9229,3.9344,3.9363,3.9388,3.9635,3.9569,3.9657,3.9802,3.9887,3.9916,3.9942,4.0027,4.0059,3.9676,3.9676,3.9677,0,3.8733,3.8733,3.8783,3.8846,3.8858,3.8935,3.8799,3.8887,3.8943,3.8831,3.8948,3.8947,3.8971,3.912,3.9185,3.9127,3.9431,3.9329,3.9348,3.9354,3.9434,3.9469,3.9501,3.9085,3.9083,3.9082,0,0,3.8619,3.8691,3.8674,3.8813,3.8826,3.879,3.8827,3.8785,3.8807,3.8816,3.8813,3.8839,3.8903,3.8948,3.9007,3.9177,3.9177,3.9258,3.9286,3.9309,3.9328,3.9414,3.9449,3.9075,3.9074,3.9074,0,0,3.8565,3.8549,3.8498,3.8653,3.8676,3.8669,3.8756,3.8695,3.8743,3.8726,3.8663,3.8667,3.8805,3.8809,3.8717,3.8965,3.8849,3.8871,3.8957,3.8992,3.9019,3.9015,3.8581,0,0,0,0,0,3.8399,3.855,3.8504,3.8523,3.8605,3.8694,3.8704,3.8653,3.8571,3.8641,3.8628,3.8555,3.8745,3.8663,3.8684,3.8787,3.8982,3.8998,3.9014,3.9165,3.9202,3.9232,0,0,0,0,0,0,3.8406,3.843,3.85,3.8501,3.8518,3.8688,3.8538,3.8528,3.8562,3.8546,3.8559,3.8555,3.8515,3.8648,3.8669,3.8767,3.8574,3.8988,3.9002,3.9015,3.9177,3.9207,3.9233,0,0,0,0,0,3.8412,3.843,3.8574,3.8498,3.8514,3.8482,3.8531,3.8522,3.8548,3.853,3.8523,3.8506,3.852,3.8533,3.866,3.8759,3.856,3.8568,3.8997,3.9008,3.9018,3.9192,0,0,0,0,0,0,3.8415,3.8423,3.8576,3.8579,3.8437,3.8471,3.8474,3.8518,3.8528,3.8523,3.8473,3.846,3.8525,3.8534,3.8545,3.8759,3.8548,3.8556,3.8561,3.9006,3.9014,3.9022,0,0,0,0,0,0,3.8413,3.8427,3.8577,3.8503,3.8497,3.8462,3.8465,3.8567,3.853,3.8471,3.846,3.8467,3.8509,3.8536,3.8544,3.8705,3.854,3.8547,3.8552,3.8556,3.9013,3.902,0,0,0,0,0,0,3.8418,3.843,3.8502,3.8497,3.8491,3.852,3.8551,3.8638,3.8464,3.8472,3.8447,3.8439,3.8513,3.852,3.8543,3.8702,3.8704,3.854,3.8545,3.8549,3.8551,0,0,0,0,0,0,0,3.8422,3.8354,3.8559,3.8493,3.8487,3.8605,3.8606,3.8606,3.8462,3.8455,3.8448,3.8442,3.8497,3.8505,3.8513,3.8699,0,0,3.8539,3.8543,0,0,0,0,0,0,0,0,3.8348,3.8352,3.8559,3.8559,3.856,3.8605,3.8606,3.8606,3.8461,3.8455,3.845,3.8445,3.8499,3.8506,3.8513,0,0,0,0,0,0,0,0,0,0,0,0,0,0,0,3.8559,3.8559,0,3.8605,3.8606,3.8606,3.846,3.8456,3.8451,3.8447,3.8501,3.8506,3.8512,0,0,0,0,0,0,0,0,0,0,0,0,0,0,0,0,0,0,0,0,0,0,0,0,0,0,0,0,0,0,0,0,0,0,0,0,0,0,0,0,0,0,0,0,0,0,0,0,0,0,0,0,0,0,0,0,0,0,0,0,0,0,0,0,0,0,0,0,0]}],[{"header":{"parameterUnit":"kt","parameterCategory":2,"dx":1,"dy":1,"la1":30.253999710083008,"la2":30.299108505249023,"lo1":-89.0895004272461,"lo2":-89.04439544677734,"nx":28,"ny":28,"refTime":"2022-10-29T21:00:00:Z","depth":0,"parameterNumber":2,"parameterNumberName":"V-component_of_WINDS"},"data":[0.7637,0.7712,0.7729,0.7822,0.7853,0.7919,0.7948,0.7987,0.8023,0.8104,0.8153,0.8177,0.8218,0.828,0.8334,0.8344,0.8365,0.838,0.8388,0.8306,0.8295,0.8285,0.8268,0.8385,0.8385,0.8471,0.8472,0.8473,0.7575,0.7606,0.7661,0.7724,0.7771,0.7766,0.7816,0.7855,0.7915,0.7959,0.8008,0.8081,0.814,0.8176,0.8236,0.8271,0.8272,0.8286,0.8283,0.8289,0.8202,0.8184,0.8284,0.8284,0.8284,0.8284,0.8284,0.8284,0.7468,0.7513,0.756,0.762,0.7656,0.7698,0.7744,0.7772,0.7825,0.7889,0.7897,0.7965,0.8011,0.8091,0.8121,0.8174,0.816,0.8181,0.8186,0.819,0.8193,0.8066,0.8185,0.8184,0.8184,0.8184,0.8184,0,0.7394,0.7404,0.7457,0.7515,0.7559,0.7606,0.7651,0.7679,0.7706,0.7749,0.7812,0.7851,0.7927,0.7988,0.8047,0.8074,0.8072,0.8074,0.8088,0.8084,0.8074,0.808,0.7936,0.807,0.8069,0.8069,0.8068,0.8068,0.7286,0.7336,0.7394,0.7429,0.7457,0.7514,0.755,0.757,0.7608,0.7666,0.7705,0.7766,0.7816,0.7914,0.7945,0.8002,0.8001,0.8051,0.801,0.8005,0.8002,0.7998,0.8003,0.8058,0.8059,0.806,0.8061,0,0.7224,0.7249,0.7332,0.7384,0.7398,0.745,0.7494,0.7539,0.7561,0.7627,0.7643,0.7677,0.7738,0.7762,0.7836,0.7847,0.7932,0.793,0.7916,0.7917,0.7963,0.7958,0.811,0.8131,0.8011,0.8012,0.8013,0,0.7141,0.7206,0.7241,0.7287,0.7361,0.7378,0.745,0.7476,0.7516,0.7568,0.757,0.7618,0.7641,0.7692,0.7708,0.7781,0.7796,0.7807,0.7811,0.7807,0.7805,0.7827,0.7821,0.7816,0.7815,0.7815,0.7814,0,0.704,0.7135,0.7211,0.7237,0.7298,0.7333,0.736,0.7405,0.7441,0.7491,0.7514,0.7571,0.7602,0.7646,0.7665,0.7636,0.7756,0.772,0.7768,0.7767,0.7792,0.7791,0.792,0.7813,0.7813,0.7813,0.7812,0,0.6977,0.7027,0.7134,0.7185,0.7209,0.7259,0.7316,0.7365,0.7412,0.7425,0.7464,0.7468,0.7534,0.7497,0.7589,0.7546,0.7577,0.7595,0.7598,0.7605,0.7563,0.7632,0.7754,0.7767,0.7612,0.7611,0.7609,0,0.6854,0.6968,0.6984,0.7085,0.7141,0.7139,0.7196,0.7237,0.7259,0.7309,0.7333,0.7391,0.7368,0.7389,0.7432,0.7458,0.7514,0.7451,0.7523,0.7526,0.7511,0.7623,0.7635,0.7725,0.7588,0.759,0.7592,0,0.6762,0.6835,0.6852,0.6882,0.694,0.6986,0.7051,0.7112,0.7144,0.7191,0.7245,0.7326,0.7312,0.7347,0.7356,0.7399,0.7477,0.7378,0.7379,0.7395,0.758,0.7591,0.7606,0.7473,0.7476,0.7478,0.7575,0,0.666,0.672,0.6767,0.6832,0.6872,0.6936,0.6961,0.6999,0.7004,0.7025,0.7105,0.7145,0.7207,0.723,0.7235,0.7326,0.7314,0.7298,0.7263,0.7337,0.737,0.7383,0.7213,0.7212,0.7211,0.721,0,0,0.6535,0.6622,0.6637,0.67,0.6735,0.6731,0.6798,0.6831,0.6898,0.6922,0.6902,0.7022,0.7056,0.715,0.7175,0.72,0.7219,0.7192,0.7302,0.7312,0.7321,0.7356,0.7369,0.7209,0.7209,0.7209,0.7208,0,0.6503,0.6537,0.6603,0.6638,0.669,0.6709,0.6725,0.6776,0.6793,0.6872,0.6867,0.6918,0.7013,0.7049,0.708,0.7181,0.7175,0.7198,0.7244,0.7293,0.7305,0.7314,0.735,0.7363,0.7207,0.7207,0.7207,0,0.6416,0.6454,0.6488,0.6566,0.66,0.6658,0.6627,0.6689,0.6732,0.6724,0.6802,0.6828,0.6877,0.6964,0.7004,0.6987,0.7133,0.7092,0.7097,0.7102,0.715,0.7164,0.7175,0.7019,0.7019,0.7018,0,0,0.6385,0.6441,0.6486,0.6561,0.6583,0.6612,0.6645,0.6653,0.6697,0.6715,0.6747,0.6791,0.6846,0.6883,0.6936,0.7028,0.7039,0.7067,0.7076,0.7083,0.7092,0.7142,0.7156,0.7015,0.7015,0.7015,0,0,0.6369,0.6426,0.6422,0.6511,0.6554,0.6604,0.6648,0.6645,0.6696,0.6691,0.6706,0.6719,0.68,0.6825,0.6784,0.6924,0.6889,0.6899,0.6905,0.6916,0.6925,0.6917,0.6758,0,0,0,0,0,0.6348,0.6419,0.6415,0.6433,0.6532,0.6606,0.6619,0.6633,0.6608,0.6643,0.667,0.6661,0.6806,0.6771,0.6789,0.6834,0.6979,0.6985,0.6991,0.702,0.7032,0.7041,0,0,0,0,0,0,0.6356,0.6379,0.6413,0.6465,0.6488,0.6604,0.6565,0.657,0.6605,0.6602,0.6656,0.6662,0.6676,0.6762,0.6778,0.6821,0.6753,0.6981,0.6987,0.6992,0.7024,0.7033,0.7042,0,0,0,0,0,0.6362,0.638,0.6534,0.6465,0.6484,0.652,0.6562,0.6567,0.6594,0.6635,0.6641,0.6601,0.6677,0.6691,0.6772,0.6813,0.6742,0.6748,0.6985,0.6989,0.6993,0.7029,0,0,0,0,0,0,0.6366,0.6385,0.6538,0.6544,0.6439,0.6514,0.6526,0.6563,0.6624,0.6631,0.658,0.6577,0.6678,0.6689,0.6701,0.681,0.6733,0.6739,0.6742,0.6988,0.6991,0.6994,0,0,0,0,0,0,0.6375,0.639,0.6541,0.6508,0.6511,0.6508,0.6519,0.6589,0.6625,0.6566,0.6566,0.6578,0.6661,0.6688,0.6697,0.6806,0.6726,0.6732,0.6736,0.6738,0.6991,0.6993,0,0,0,0,0,0,0.6382,0.6395,0.6507,0.6509,0.6511,0.6584,0.657,0.667,0.6597,0.6564,0.659,0.6587,0.6661,0.667,0.6695,0.68,0.6805,0.6726,0.673,0.6733,0.6735,0,0,0,0,0,0,0,0.6387,0.6296,0.65,0.6509,0.6511,0.6604,0.6606,0.6607,0.6596,0.6593,0.6591,0.6589,0.6693,0.6699,0.6705,0.6795,0,0,0.6725,0.6728,0,0,0,0,0,0,0,0,0.6291,0.6295,0.65,0.6502,0.6503,0.6604,0.6606,0.6607,0.6596,0.6594,0.6592,0.659,0.6694,0.67,0.6705,0,0,0,0,0,0,0,0,0,0,0,0,0,0,0,0.65,0.6501,0,0.6604,0.6606,0.6607,0.6595,0.6594,0.6592,0.659,0.6696,0.67,0.6704,0,0,0,0,0,0,0,0,0,0,0,0,0,0,0,0,0,0,0,0,0,0,0,0,0,0,0,0,0,0,0,0,0,0,0,0,0,0,0,0,0,0,0,0,0,0,0,0,0,0,0,0,0,0,0,0,0,0,0,0,0,0,0,0,0,0,0,0,0]}]]]